Time,TemperatureF,DewpointF,PressureIn,WindDirection,WindDirectionDegrees,WindSpeedMPH,WindSpeedGustMPH,Humidity,HourlyPrecipIn,Conditions,Clouds,dailyrainin,SolarRadiationWatts/m^2,SoftwareType,DateUTC
2013-05-07 00:03:00,48.0,44.0,30.24,WNW,303,1.0,7.0,87,0.00,,,0.27,0.000000,,2013-05-07 04:03:00,
2013-05-07 00:33:00,48.0,46.0,30.24,NE,50,2.0,3.0,93,0.00,,,0.05,0.000000,,2013-05-07 04:33:00,
2013-05-07 00:42:00,48.0,46.0,30.24,NE,50,2.0,3.0,93,0.00,,,0.05,0.000000,,2013-05-07 04:42:00,
2013-05-07 00:53:00,48.0,46.0,30.24,NE,50,2.0,3.0,93,0.00,,,0.05,0.000000,,2013-05-07 04:53:00,
2013-05-07 01:02:00,48.0,46.0,30.24,NE,50,2.0,3.0,93,0.00,,,0.05,0.000000,,2013-05-07 05:02:00,
2013-05-07 01:32:00,47.0,46.0,30.23,NNE,27,2.0,3.0,95,0.00,,,0.01,0.000000,,2013-05-07 05:32:00,
2013-05-07 01:42:00,47.0,46.0,30.23,NNE,27,2.0,3.0,95,0.00,,,0.01,0.000000,,2013-05-07 05:42:00,
2013-05-07 01:52:00,47.0,46.0,30.23,NNE,27,2.0,3.0,95,0.00,,,0.01,0.000000,,2013-05-07 05:52:00,
2013-05-07 02:02:00,47.0,46.0,30.23,NNE,27,2.0,3.0,95,0.00,,,0.01,0.000000,,2013-05-07 06:02:00,
2013-05-07 02:32:00,45.0,44.0,30.22,ESE,105,1.0,4.0,97,0.00,,,0.01,0.000000,,2013-05-07 06:32:00,
2013-05-07 02:42:00,45.0,44.0,30.22,ESE,105,1.0,4.0,97,0.00,,,0.01,0.000000,,2013-05-07 06:42:00,
2013-05-07 02:52:00,45.0,44.0,30.22,ESE,105,1.0,4.0,97,0.00,,,0.01,0.000000,,2013-05-07 06:52:00,
2013-05-07 03:02:00,45.0,44.0,30.22,ESE,105,1.0,4.0,97,0.00,,,0.01,0.000000,,2013-05-07 07:02:00,
2013-05-07 03:32:00,43.0,42.0,30.21,SSE,164,1.0,2.0,98,0.00,,,0.01,0.000000,,2013-05-07 07:32:00,
2013-05-07 03:42:00,43.0,42.0,30.21,SSE,164,1.0,2.0,98,0.00,,,0.01,0.000000,,2013-05-07 07:42:00,
2013-05-07 03:53:00,43.0,42.0,30.21,SSE,164,1.0,2.0,98,0.00,,,0.01,0.000000,,2013-05-07 07:53:00,
2013-05-07 04:02:00,43.0,42.0,30.21,SSE,164,1.0,2.0,98,0.00,,,0.01,0.000000,,2013-05-07 08:02:00,
2013-05-07 04:32:00,44.0,43.0,30.21,WNW,301,0.0,2.0,98,0.00,,,0.01,0.000000,,2013-05-07 08:32:00,
2013-05-07 04:42:00,44.0,43.0,30.21,WNW,301,0.0,2.0,98,0.00,,,0.01,0.000000,,2013-05-07 08:42:00,
2013-05-07 04:52:00,44.0,43.0,30.21,WNW,301,0.0,2.0,98,0.00,,,0.01,0.000000,,2013-05-07 08:52:00,
2013-05-07 05:01:00,44.0,43.0,30.21,WNW,301,0.0,2.0,98,0.00,,,0.01,0.000000,,2013-05-07 09:01:00,
2013-05-07 05:33:00,43.0,43.0,30.21,North,0,2.0,3.0,99,0.00,,,0.01,0.000000,,2013-05-07 09:33:00,
2013-05-07 05:43:00,43.0,43.0,30.21,North,0,2.0,3.0,99,0.00,,,0.01,0.000000,,2013-05-07 09:43:00,
2013-05-07 05:52:00,43.0,43.0,30.21,North,0,2.0,3.0,99,0.00,,,0.01,0.000000,,2013-05-07 09:52:00,
2013-05-07 06:03:00,43.0,43.0,30.21,North,0,2.0,3.0,99,0.00,,,0.01,0.000000,,2013-05-07 10:03:00,
2013-05-07 06:33:00,41.0,41.0,30.22,SSW,203,1.0,3.0,99,0.00,,,0.01,0.000000,,2013-05-07 10:33:00,
2013-05-07 06:42:00,41.0,41.0,30.22,SSW,203,1.0,3.0,99,0.00,,,0.01,0.000000,,2013-05-07 10:42:00,
2013-05-07 06:52:00,41.0,41.0,30.22,SSW,203,1.0,3.0,99,0.00,,,0.01,0.000000,,2013-05-07 10:52:00,
2013-05-07 07:02:00,41.0,41.0,30.22,SSW,203,1.0,3.0,99,0.00,,,0.01,0.000000,,2013-05-07 11:02:00,
2013-05-07 07:32:00,41.0,41.0,30.24,NE,51,1.0,3.0,99,0.00,,,0.00,11.000000,,2013-05-07 11:32:00,
2013-05-07 07:42:00,41.0,41.0,30.24,NE,51,1.0,3.0,99,0.00,,,0.00,11.000000,,2013-05-07 11:42:00,
2013-05-07 07:52:00,41.0,41.0,30.24,NE,51,1.0,3.0,99,0.00,,,0.00,11.000000,,2013-05-07 11:52:00,
2013-05-07 08:02:00,41.0,41.0,30.24,NE,51,1.0,3.0,99,0.00,,,0.00,11.000000,,2013-05-07 12:02:00,
2013-05-07 08:32:00,46.0,46.0,30.25,ENE,78,1.0,34.0,99,0.00,,,0.00,83.000000,,2013-05-07 12:32:00,
2013-05-07 08:42:00,46.0,46.0,30.25,ENE,78,1.0,34.0,99,0.00,,,0.00,83.000000,,2013-05-07 12:42:00,
2013-05-07 08:52:00,46.0,46.0,30.25,ENE,78,1.0,34.0,99,0.00,,,0.00,83.000000,,2013-05-07 12:52:00,
2013-05-07 09:02:00,46.0,46.0,30.25,ENE,78,1.0,34.0,99,0.00,,,0.00,83.000000,,2013-05-07 13:02:00,
2013-05-07 09:32:00,55.0,47.0,30.25,NW,322,2.0,5.0,75,0.00,,,-99.99,404.000000,,2013-05-07 13:32:00,
2013-05-07 09:42:00,55.0,47.0,30.25,NW,322,2.0,5.0,75,0.00,,,-99.99,404.000000,,2013-05-07 13:42:00,
2013-05-07 09:52:00,55.0,47.0,30.25,NW,322,2.0,5.0,75,0.00,,,-99.99,404.000000,,2013-05-07 13:52:00,
2013-05-07 10:02:00,55.0,47.0,30.25,NW,322,2.0,5.0,75,0.00,,,-99.99,404.000000,,2013-05-07 14:02:00,
2013-05-07 10:32:00,61.0,47.0,30.25,WSW,243,3.0,10.0,61,0.00,,,0.00,375.000000,,2013-05-07 14:32:00,
2013-05-07 10:42:00,61.0,47.0,30.25,WSW,243,3.0,10.0,61,0.00,,,0.00,375.000000,,2013-05-07 14:42:00,
2013-05-07 10:52:00,61.0,47.0,30.25,WSW,243,3.0,10.0,61,0.00,,,0.00,375.000000,,2013-05-07 14:52:00,
2013-05-07 11:01:00,61.0,47.0,30.25,WSW,243,3.0,10.0,61,0.00,,,0.00,375.000000,,2013-05-07 15:01:00,
2013-05-07 11:33:00,65.0,49.0,30.24,WNW,287,7.0,15.0,57,0.00,,,0.00,903.000000,,2013-05-07 15:33:00,
2013-05-07 11:43:00,65.0,49.0,30.24,WNW,287,7.0,15.0,57,0.00,,,0.00,903.000000,,2013-05-07 15:43:00,
2013-05-07 11:53:00,65.0,49.0,30.24,WNW,287,7.0,15.0,57,0.00,,,0.00,903.000000,,2013-05-07 15:53:00,
2013-05-07 12:03:00,65.0,49.0,30.24,WNW,287,7.0,15.0,57,0.00,,,0.00,903.000000,,2013-05-07 16:03:00,
2013-05-07 14:32:00,67.0,46.0,30.21,WNW,295,9.0,22.0,47,-99.99,,,-99.99,1147.000000,,2013-05-07 18:32:00,
2013-05-07 14:42:00,67.0,46.0,30.21,WNW,295,9.0,22.0,47,-99.99,,,-99.99,1147.000000,,2013-05-07 18:42:00,
2013-05-07 14:52:00,67.0,46.0,30.21,WNW,295,9.0,22.0,47,-99.99,,,-99.99,1147.000000,,2013-05-07 18:52:00,
2013-05-07 15:02:00,67.0,46.0,30.21,WNW,295,9.0,22.0,47,-99.99,,,-99.99,1147.000000,,2013-05-07 19:02:00,
2013-05-07 15:32:00,71.0,47.0,30.20,NNE,23,6.0,20.0,42,0.00,,,0.00,1180.000000,,2013-05-07 19:32:00,
2013-05-07 15:42:00,71.0,47.0,30.20,NNE,23,6.0,20.0,42,0.00,,,0.00,1180.000000,,2013-05-07 19:42:00,
2013-05-07 15:52:00,71.0,47.0,30.20,NNE,23,6.0,20.0,42,0.00,,,0.00,1180.000000,,2013-05-07 19:52:00,
2013-05-07 16:02:00,71.0,47.0,30.20,NNE,23,6.0,20.0,42,0.00,,,0.00,1180.000000,,2013-05-07 20:02:00,
2013-05-07 16:32:00,72.0,47.0,30.19,SSW,211,4.0,24.0,41,0.00,,,0.00,1087.000000,,2013-05-07 20:32:00,
2013-05-07 16:42:00,72.0,47.0,30.19,SSW,211,4.0,24.0,41,0.00,,,0.00,1087.000000,,2013-05-07 20:42:00,
2013-05-07 16:52:00,72.0,47.0,30.19,SSW,211,4.0,24.0,41,0.00,,,0.00,1087.000000,,2013-05-07 20:52:00,
2013-05-07 17:02:00,72.0,47.0,30.19,SSW,211,4.0,24.0,41,0.00,,,0.00,1087.000000,,2013-05-07 21:02:00,
2013-05-07 17:33:00,66.0,48.0,30.21,NW,318,4.0,16.0,53,0.00,,,0.00,621.000000,,2013-05-07 21:33:00,
2013-05-07 17:43:00,66.0,48.0,30.21,NW,318,4.0,16.0,53,0.00,,,0.00,621.000000,,2013-05-07 21:43:00,
2013-05-07 17:53:00,66.0,48.0,30.21,NW,318,4.0,16.0,53,0.00,,,0.00,621.000000,,2013-05-07 21:53:00,
2013-05-07 18:02:00,66.0,48.0,30.21,NW,318,4.0,16.0,53,0.00,,,0.00,621.000000,,2013-05-07 22:02:00,
2013-05-07 18:33:00,60.0,46.0,30.25,NNE,27,2.0,23.0,60,0.00,,,0.00,336.000000,,2013-05-07 22:33:00,
2013-05-07 18:42:00,60.0,46.0,30.25,NNE,27,2.0,23.0,60,0.00,,,0.00,336.000000,,2013-05-07 22:42:00,
2013-05-07 18:52:00,60.0,46.0,30.25,NNE,27,2.0,23.0,60,0.00,,,0.00,336.000000,,2013-05-07 22:52:00,
2013-05-07 19:02:00,60.0,46.0,30.25,NNE,27,2.0,23.0,60,0.00,,,0.00,336.000000,,2013-05-07 23:02:00,
2013-05-07 19:32:00,57.0,49.0,30.25,WNW,296,4.0,10.0,74,0.00,,,0.00,106.000000,,2013-05-07 23:32:00,
2013-05-07 19:42:00,57.0,49.0,30.25,WNW,296,4.0,10.0,74,0.00,,,0.00,106.000000,,2013-05-07 23:42:00,
2013-05-07 19:52:00,57.0,49.0,30.25,WNW,296,4.0,10.0,74,0.00,,,0.00,106.000000,,2013-05-07 23:52:00,
2013-05-07 20:02:00,57.0,49.0,30.25,WNW,296,4.0,10.0,74,0.00,,,0.00,106.000000,,2013-05-08 00:02:00,
2013-05-07 20:32:00,55.0,49.0,30.27,North,0,2.0,9.0,81,0.00,,,-99.99,23.000000,,2013-05-08 00:32:00,
2013-05-07 20:42:00,55.0,49.0,30.27,North,0,2.0,9.0,81,0.00,,,-99.99,23.000000,,2013-05-08 00:42:00,
2013-05-07 20:52:00,55.0,49.0,30.27,North,0,2.0,9.0,81,0.00,,,-99.99,23.000000,,2013-05-08 00:52:00,
2013-05-07 21:02:00,55.0,49.0,30.27,North,0,2.0,9.0,81,0.00,,,-99.99,23.000000,,2013-05-08 01:02:00,
2013-05-07 21:32:00,52.0,48.0,30.28,East,84,1.0,3.0,87,0.00,,,0.00,1.000000,,2013-05-08 01:32:00,
2013-05-07 21:42:00,52.0,48.0,30.28,East,84,1.0,3.0,87,0.00,,,0.00,1.000000,,2013-05-08 01:42:00,
2013-05-07 21:52:00,52.0,48.0,30.28,East,84,1.0,3.0,87,0.00,,,0.00,1.000000,,2013-05-08 01:52:00,
2013-05-07 22:02:00,52.0,48.0,30.28,East,84,1.0,3.0,87,0.00,,,0.00,1.000000,,2013-05-08 02:02:00,
2013-05-07 22:32:00,53.0,51.0,30.29,ENE,75,2.0,6.0,92,0.00,,,0.00,0.000000,,2013-05-08 02:32:00,
2013-05-07 22:42:00,53.0,51.0,30.29,ENE,75,2.0,6.0,92,0.00,,,0.00,0.000000,,2013-05-08 02:42:00,
2013-05-07 22:52:00,53.0,51.0,30.29,ENE,75,2.0,6.0,92,0.00,,,0.00,0.000000,,2013-05-08 02:52:00,
2013-05-07 23:02:00,53.0,51.0,30.29,ENE,75,2.0,6.0,92,0.00,,,0.00,0.000000,,2013-05-08 03:02:00,
2013-05-07 23:33:00,51.0,49.0,30.30,SSE,154,1.0,4.0,94,0.00,,,0.00,0.000000,,2013-05-08 03:33:00,
2013-05-07 23:43:00,51.0,49.0,30.30,SSE,154,1.0,4.0,94,0.00,,,0.00,0.000000,,2013-05-08 03:43:00,
2013-05-07 23:52:00,51.0,49.0,30.30,SSE,154,1.0,4.0,94,0.00,,,0.00,0.000000,,2013-05-08 03:52:00,